Tracking 31027 objects as of 19-Jul-2025
HD Live streaming from Space Station
objects crossing your sky now

STARLINK-30834

Track STARLINK-30834 now!
10-day predictions
STARLINK-30834 is classified as:


NORAD ID: 58151
Int'l Code: 2023-166B
Perigee: 481.6 km
Apogee: 483.2 km
Inclination: 53.2 °
Period: 94.1 minutes
Semi major axis: 6853 km
RCS: Unknown
Launch date: October 29, 2023
Source: United States (US)
Launch site: AIR FORCE WESTERN TEST RANGE (AFWTR)
Your satellite tracking list
SPACEBEE-134
Track 1 satellite(s)




NASA's NSSDC Master Catalog

Two Line Element Set (TLE):
1 58151U 23166B   25199.40185747 -.00000185  00000-0  58784-5 0  9992
2 58151  53.1590 228.0014 0001178  85.9812 274.1323 15.30183753 97309
Source of the keplerian elements: AFSPC